Regional Weather Roundup
Issued by NWS

Home | Current Version | Previous Version | Graphics & Text | Print | Product List | Glossary On
Versions: 1 2 3 4 5 6 7 8 9 10 11 12 13 14 15 16 17 18 19 20 21 22 23 24 25 26 27 28 29 30 31 32 33 34 35 36 37 38 39 40 41 42 43 44 45 46 47 48 49 50
000
ASUS43 KIND 220900
RWRIN

WEATHER ROUNDUP FOR INDIANA
NATIONAL WEATHER SERVICE INDIANAPOLIS IN
500 AM EDT THU JUN 22 2017

NOTE: "FAIR" INDICATES FEW OR NO CLOUDS BELOW 12,000 FEET WITH NO
SIGNIFICANT WEATHER AND/OR OBSTRUCTIONS TO VISIBILITY.

* - STATION DOES NOT REPORT WEATHER SUCH AS PRECIPITATION OR FOG.

+ - STATION NOT QUALITY CONTROLLED BY THE NATIONAL WEATHER SERVICE.
    USE DATA WITH CAUTION...ESPECIALLY DEWPOINT AND RELATIVE
    HUMIDITY OBSERVATIONS.

INZ001>003-010>013-019-020-221000-
NORTHWEST INDIANA

CITY           SKY/WX    TMP DP  RH WIND       PRES   REMARKS
GARY /AIRPORT/ CLOUDY    78  69  73 S6        29.87S
KNOX *+        CLOUDY    73  61  64 SW10      29.89S
MICHIGAN CITY+ CLOUDY    73  66  78 S10       29.88S
MONTICELLO +   MOCLDY    74  68  81 SW10      29.92S
RENSSELAER +   CLOUDY    75  66  73 SW13      29.91R

$$

LMZ046-743>745-221000-
SOUTHERN LAKE MICHIGAN

STATION/POSITION TIME  TEMP    WIND        PRES    WAVE
                       AIR SEA DIR/SP/G            HT
                 (UTC) (F)     (DEG/KT/KT) (MB)    (FT)
BURNS HARBOR     0840   76     200/ 15/ 20 1011.5S
MICHIGAN CITY    0830   75     180/ 13/ 17   N/A
5NW MICH CITY    0850   74 68  210/ 12/ 16   N/A     1

$$

INZ004-005-014>016-021>024-221000-
NORTH CENTRAL INDIANA

CITY           SKY/WX    TMP DP  RH WIND       PRES   REMARKS
GOSHEN         PTCLDY    72  61  68 S8        29.91S
SOUTH BEND     CLOUDY    72  65  78 S6        29.90R

$$

INZ006>009-017-018-025>027-221000-
NORTHEAST INDIANA

CITY           SKY/WX    TMP DP  RH WIND       PRES   REMARKS
FORT WAYNE     CLOUDY    71  65  81 SW6       29.94S
KENDALLVILLE + PTCLDY    67  58  72 S6        29.93S

$$

INZ028-029-035-036-043>045-051>053-221000-
WEST CENTRAL INDIANA

CITY           SKY/WX    TMP DP  RH WIND       PRES   REMARKS
CRAWFORDSVL +  MOCLDY   -33 -34  94 S6        29.96S WCI -51
LAFAYETTE      CLOUDY    74  69  85 SW6       29.92F
TERRE HAUTE    PTCLDY    73  67  81 S6        29.95F

$$

INZ030>032-037>040-046>048-054>057-064-065-221000-
CENTRAL INDIANA

CITY           SKY/WX    TMP DP  RH WIND       PRES   REMARKS
GREENWOOD *+   MOCLDY    72  66  81 SW5       29.99F
INDIANAPOLIS   MOCLDY    74  67  78 SW10      29.96F
-EAGLE CREEK   CLOUDY    74  66  76 S7        29.96F
KOKOMO +       PTCLDY    75  69  81 SW15      29.95F
MT COMFORT *+  PTCLDY    72  68  88 S7        29.99S
SHELBYVILLE    PTCLDY    73  67  81 S8        29.97F

$$

INZ033-034-041-042-049-050-058-059-221000-
EAST CENTRAL INDIANA

CITY           SKY/WX    TMP DP  RH WIND       PRES   REMARKS
MUNCIE         CLOUDY    75  68  78 SW7       29.97S
RICHMOND +     MOCLDY    70  66  88 SW9       30.01F

$$

INZ060-061-067>069-081>083-085>088-221000-
SOUTHWEST INDIANA

CITY           SKY/WX    TMP DP  RH WIND       PRES   REMARKS
EVANSVILLE     CLOUDY    72  68  87 SE3       29.98S
HUNTINGBURG *+ MOCLDY    71  68  90 SE5       29.98F

$$

INZ062-063-066-070>080-084-089>092-221000-
SOUTH CENTRAL AND SOUTHEAST INDIANA

CITY           SKY/WX    TMP DP  RH WIND       PRES   REMARKS
BLOOMINGTON    CLOUDY    71  64  78 S3        29.98F
MADISON *+     CLOUDY    72  66  83 S3        30.03F
SEYMOUR +      CLOUDY    73  68  83 S5        29.99F

$$




USA.gov is the U.S. government's official web portal to all federal, state and local government web resources and services.